Minchumina, AK

10:44 AM AKDT on June 22, 2017 (GMT -0800)
Minchumina

Weather History for PAMH - August, 2013

Change the Weather History Date:

Friday, August 23, 2013

  Actual Average Record
Temperature  
Mean Temperature 52 °F -  
Max Temperature 53 °F 57 °F 71 °F (2004)
Min Temperature 48 °F 43 °F 39 °F (1998)
Degree Days  
Heating Degree Days 14    
Growing Degree Days 2 (Base 50)    
Moisture  
Dew Point 48 °F    
Average Humidity 89    
Maximum Humidity 94    
Minimum Humidity 82    
Precipitation  
Precipitation 0.62 in - - ()
Sea Level Pressure  
Sea Level Pressure 29.60 in    
Wind  
Wind Speed 5 mph (SSW)    
Max Wind Speed 9 mph    
Max Gust Speed 16 mph    
Visibility 9 miles    
Events      
Averages and records for this station are not official NWS values.
T = Trace of Precipitation, MM = Missing Value Source: NWS Daily Summary

Daily Weather History Graph

Daily Weather History Graph

Search for Another Location

Airport or City:

Trip Planner

Search our weather history database for the weather conditions in past years. The results will help you decide how hot, cold, wet, or windy it might be!

Date:

Astronomy

Aug. 23, 2013 Rise Set
Actual Time 6:27 AM AKDT 9:53 PM AKDT
Civil Twilight 5:30 AM AKDT 10:50 PM AKDT
Nautical Twilight 4:01 AM AKDT 12:16 AM AKDT
Astronomical Twilight Sun does not set Sun does not set
Moon 9:43 PM AKDT (8/23) 11:00 AM AKDT (8/23)
Length of Visible Light 17h 20m
Length of Day
15h 26m
Waning Gibbous, 90% of the Moon is Illuminated
Aug 23
Waning Gibbous
Aug 28
Last Quarter
Sep 5
New
Sep 12
First Quarter
Sep 19
Full

Hourly Weather History & Observations

Time (AKDT) Temp. Dew Point Humidity Pressure Visibility Wind Dir Wind Speed Gust Speed Precip Events Conditions
12:16 AM 51.8 °F 48.2 °F 88% 29.55 in 10.0 mi SSW 5.8 mph - 0.04 in   Overcast
12:36 AM 51.8 °F 48.2 °F 88% 29.55 in 8.0 mi SSW 4.6 mph - 0.07 in   Mostly Cloudy
12:56 AM 51.8 °F 48.2 °F 88% 29.55 in 10.0 mi SSW 5.8 mph - 0.12 in   Overcast
1:16 AM 51.8 °F 48.2 °F 88% 29.55 in 10.0 mi SSW 5.8 mph - 0.04 in   Mostly Cloudy
1:36 AM 51.8 °F 48.2 °F 88% 29.55 in 10.0 mi SSW 6.9 mph - 0.08 in   Overcast
1:56 AM 51.8 °F 48.2 °F 88% 29.55 in 10.0 mi SSW 5.8 mph - 0.12 in   Overcast
2:16 AM 51.8 °F 48.2 °F 88% 29.55 in 10.0 mi SSW 8.1 mph - 0.03 in   Overcast
2:36 AM 51.8 °F 48.2 °F 88% 29.55 in 10.0 mi SSW 6.9 mph - 0.05 in   Overcast
2:56 AM 51.8 °F 48.2 °F 88% 29.55 in 10.0 mi SSW 9.2 mph - 0.05 in   Overcast
3:16 AM 51.8 °F 48.2 °F 88% 29.55 in 10.0 mi SSW 9.2 mph 16.1 mph 0.02 in   Mostly Cloudy
3:36 AM 51.8 °F 48.2 °F 88% 29.55 in 10.0 mi SSW 9.2 mph - 0.02 in   Overcast
3:56 AM 51.8 °F 48.2 °F 88% 29.55 in 10.0 mi SSW 9.2 mph - 0.02 in   Overcast
4:16 AM 51.8 °F 48.2 °F 88% 29.55 in 10.0 mi SSW 6.9 mph - N/A   Overcast
4:36 AM 51.8 °F 48.2 °F 88% 29.55 in 10.0 mi SSW 5.8 mph - N/A   Overcast
4:56 AM 51.8 °F 48.2 °F 88% 29.55 in 10.0 mi SSW 6.9 mph - N/A   Overcast
5:16 AM 51.8 °F 48.2 °F 88% 29.55 in 10.0 mi SSW 6.9 mph - N/A   Overcast
5:36 AM 51.8 °F 48.2 °F 88% 29.55 in 10.0 mi SSW 8.1 mph - N/A   Overcast
5:56 AM 51.8 °F 48.2 °F 88% 29.55 in 10.0 mi SSW 6.9 mph - N/A   Overcast
6:16 AM 51.8 °F 48.2 °F 88% 29.55 in 10.0 mi SSW 5.8 mph - N/A   Overcast
6:36 AM 51.8 °F 48.2 °F 88% 29.55 in 10.0 mi SSW 6.9 mph - N/A   Overcast
6:56 AM 51.8 °F 48.2 °F 88% 29.55 in 10.0 mi SSW 6.9 mph - N/A   Overcast
7:16 AM 51.8 °F 48.2 °F 88% 29.55 in 10.0 mi SSW 6.9 mph - N/A   Overcast
7:36 AM 51.8 °F 48.2 °F 88% 29.56 in 10.0 mi SSW 5.8 mph - 0.01 in   Overcast
7:56 AM 51.8 °F 48.2 °F 88% 29.56 in 10.0 mi SSW 4.6 mph - 0.01 in   Overcast
8:16 AM 51.8 °F 48.2 °F 88% 29.56 in 10.0 mi SSW 5.8 mph - N/A   Overcast
8:36 AM 51.8 °F 48.2 °F 88% 29.56 in 10.0 mi SW 4.6 mph - N/A   Overcast
8:56 AM 51.8 °F 48.2 °F 88% 29.57 in 10.0 mi SSW 5.8 mph - 0.03 in   Overcast
9:16 AM 51.8 °F 46.4 °F 82% 29.57 in 9.0 mi SSW 5.8 mph - 0.01 in   Overcast
9:36 AM 50.0 °F 46.4 °F 87% 29.57 in 10.0 mi SSW 3.5 mph - 0.01 in   Overcast
9:56 AM 50.0 °F 46.4 °F 87% 29.57 in 10.0 mi SSW 4.6 mph - 0.02 in   Overcast
10:16 AM 50.0 °F 46.4 °F 87% 29.58 in 10.0 mi SSW 3.5 mph - 0.03 in   Overcast
10:36 AM 51.8 °F 48.2 °F 88% 29.58 in 10.0 mi SSW 4.6 mph - 0.04 in   Overcast
10:56 AM 50.0 °F 46.4 °F 87% 29.58 in 10.0 mi SSW 4.6 mph - 0.06 in   Overcast
11:16 AM 50.0 °F 46.4 °F 87% 29.59 in 9.0 mi SSW 6.9 mph - 0.02 in   Overcast
11:36 AM 50.0 °F 48.2 °F 94% 29.59 in 3.0 mi SSW 5.8 mph - 0.04 in   Overcast
11:56 AM 50.0 °F 48.2 °F 94% 29.59 in 7.0 mi SSW 6.9 mph - 0.04 in   Overcast
12:16 PM 50.0 °F 48.2 °F 94% 29.59 in 10.0 mi SSW 5.8 mph - N/A   Overcast
12:36 PM 50.0 °F 48.2 °F 94% 29.59 in 10.0 mi SSW 5.8 mph - N/A   Overcast
12:56 PM 51.8 °F 48.2 °F 88% 29.60 in 10.0 mi SSW 4.6 mph - N/A   Overcast
1:16 PM 51.8 °F 46.4 °F 82% 29.60 in 10.0 mi SSW 4.6 mph - N/A   Overcast
1:36 PM 51.8 °F 48.2 °F 88% 29.60 in 10.0 mi SW 4.6 mph - N/A   Overcast
1:56 PM 51.8 °F 48.2 °F 88% 29.61 in 3.0 mi SW 5.8 mph - 0.01 in   Overcast
2:16 PM 51.8 °F 48.2 °F 88% 29.61 in 3.0 mi SSW 5.8 mph - N/A   Overcast
2:36 PM 51.8 °F 48.2 °F 88% 29.62 in 3.0 mi SSW 5.8 mph - N/A   Overcast
2:56 PM 51.8 °F 48.2 °F 88% 29.62 in 2.5 mi SSW 3.5 mph - N/A   Overcast
3:16 PM 51.8 °F 48.2 °F 88% 29.62 in 4.0 mi SW 3.5 mph - N/A   Overcast
3:36 PM 51.8 °F 48.2 °F 88% 29.62 in 7.0 mi Calm Calm - N/A   Overcast
3:56 PM 51.8 °F 48.2 °F 88% 29.62 in 9.0 mi SW 4.6 mph - N/A   Overcast
4:16 PM 51.8 °F 48.2 °F 88% 29.63 in 5.0 mi SW 3.5 mph - 0.01 in   Overcast
4:36 PM 51.8 °F 48.2 °F 88% 29.63 in 4.0 mi SW 4.6 mph - 0.03 in   Overcast
4:56 PM 51.8 °F 48.2 °F 88% 29.63 in 5.0 mi SSW 4.6 mph - 0.04 in   Overcast
5:16 PM 51.8 °F 48.2 °F 88% 29.63 in 7.0 mi Calm Calm - 0.02 in   Overcast
5:36 PM 51.8 °F 48.2 °F 88% 29.63 in 9.0 mi Calm Calm - 0.04 in   Overcast
5:56 PM 51.8 °F 48.2 °F 88% 29.64 in 8.0 mi Calm Calm - 0.08 in   Mostly Cloudy
6:16 PM 51.8 °F 50.0 °F 94% 29.64 in 9.0 mi Calm Calm - 0.01 in   Mostly Cloudy
6:36 PM 51.8 °F 50.0 °F 94% 29.65 in 10.0 mi Calm Calm - 0.01 in   Overcast
6:56 PM 53.6 °F 50.0 °F 88% 29.65 in 10.0 mi Calm Calm - 0.01 in   Overcast
7:16 PM 53.6 °F 50.0 °F 88% 29.65 in 10.0 mi Calm Calm - N/A   Overcast
7:36 PM 53.6 °F 50.0 °F 88% 29.66 in 10.0 mi Calm Calm - N/A   Overcast
7:56 PM 53.6 °F 50.0 °F 88% 29.66 in 10.0 mi Calm Calm - 0.01 in   Overcast
8:16 PM 53.6 °F 50.0 °F 88% 29.66 in 10.0 mi Calm Calm - N/A   Overcast
8:36 PM 51.8 °F 50.0 °F 94% 29.67 in 10.0 mi Calm Calm - N/A   Overcast
8:56 PM 51.8 °F 50.0 °F 94% 29.67 in 10.0 mi Calm Calm - N/A   Overcast
9:16 PM 51.8 °F 48.2 °F 88% 29.67 in 10.0 mi Calm Calm - N/A   Overcast
9:36 PM 51.8 °F 48.2 °F 88% 29.68 in 10.0 mi Calm Calm - N/A   Overcast
9:56 PM 51.8 °F 48.2 °F 88% 29.69 in 10.0 mi Calm Calm - N/A   Mostly Cloudy
10:16 PM 51.8 °F 48.2 °F 88% 29.69 in 10.0 mi Calm Calm - N/A   Partly Cloudy
10:36 PM 50.0 °F 48.2 °F 94% 29.69 in 10.0 mi Calm Calm - N/A   Clear
10:56 PM 51.8 °F 48.2 °F 88% 29.70 in 10.0 mi Calm Calm - N/A   Clear
11:16 PM 51.8 °F 48.2 °F 88% 29.70 in 10.0 mi Calm Calm - N/A   Clear
11:36 PM 50.0 °F 46.4 °F 87% 29.71 in 10.0 mi Calm Calm - N/A   Clear
11:56 PM 48.2 °F 46.4 °F 93% 29.71 in 10.0 mi Calm Calm - N/A   Mostly Cloudy